User: anonymous
Location: Leeds
(37.2390°N, 113.3580°W)
Time: 16:19:31
(UTC-06:00)
Language:

SL-08 RB Rocket - Orbit

View from above orbital plane
View from above orbital plane
View from above satellite
View from above satellite

Ground track
Ground track

The orbit data is extracted from the following two-line orbital elements,

1 26387U 00033D   14274.12645185  .00000901  00000-0  16727-3 0  6287
2 26387 098.0962 340.6373 0026027 235.9607 179.3907 14.67398034762621
Epoch (UTC): 01 October 2014 03:02:05
Eccentricity: 0.0026027
inclination: 98.0962°
perigee height: 651 km
apogee height: 688 km
right ascension of ascending node: 340.6373°
argument of perigee: 235.9607°
revolutions per day: 14.67398034
mean anomaly at epoch: 179.3907°
orbit number at epoch: 76262

The dashed part of the orbit path shows where the satellite is in the earth's shadow,  

DLR